This is the latest recevied weather packets stored in our database for station/object AA0PB. If no packets are shown the sender has not sent any weather packets the latest 1 day(s).
| Time | Temp. | Humidity | Pressure | Rain* | Wind** | Luminosity | Snow |
|---|---|---|---|---|---|---|---|
| 1778079949 | 13.89° C | 85% | 1020.6 hPa | 0 mm | - | 116 W/m² | - |
| 1778079646 | 13.33° C | 85% | 1021 hPa | 0 mm | - | 84 W/m² | - |
| 1778079040 | 13.33° C | 86% | 1021.3 hPa | 0 mm | - | 58 W/m² | - |
| 1778078434 | 13.33° C | 86% | 1021 hPa | 0 mm | - | 46 W/m² | - |
| 1778077527 | 13.33° C | 87% | 1021.1 hPa | 0 mm | - | 24 W/m² | - |
| 1778076621 | 13.33° C | 87% | 1020.7 hPa | 0 mm | - | 20 W/m² | - |
| 1778076318 | 13.33° C | 87% | 1020.5 hPa | 0 mm | - | 19 W/m² | - |
| 1778075712 | 13.33° C | 87% | 1020.2 hPa | 0 mm | - | 20 W/m² | - |
| 1778075408 | 13.33° C | 87% | 1020.1 hPa | 0 mm | - | 20 W/m² | - |
| 1778074498 | 13.33° C | 88% | 1020.2 hPa | 0 mm | - | 14 W/m² | - |
| 1778073589 | 12.78° C | 89% | 1020.3 hPa | 0 mm | - | 10 W/m² | - |
| 1778072377 | 12.78° C | 90% | 1020 hPa | 0 mm | - | 3 W/m² | - |
| 1778071773 | 12.78° C | 89% | 1019.8 hPa | 0 mm | - | 1 W/m² | - |
| 1778071470 | 12.78° C | 89% | 1019.6 hPa | 0 mm | - | 1 W/m² | - |
| 1778071168 | 12.78° C | 89% | 1019.6 hPa | 0 mm | - | 0 W/m² | - |
| 1778070866 | 12.78° C | 89% | 1019.8 hPa | 0 mm | - | 0 W/m² | - |
| 1778070563 | 12.78° C | 89% | 1019.6 hPa | 0 mm | - | 0 W/m² | - |
| 1778069655 | 13.33° C | 88% | 1019.4 hPa | 0 mm | - | 0 W/m² | - |
| 1778069352 | 13.33° C | 88% | 1019.9 hPa | 0 mm | - | 0 W/m² | - |
| 1778066629 | 13.89° C | 87% | 1019.2 hPa | 0 mm | - | 0 W/m² | - |
| 1778065722 | 13.89° C | 87% | 1019.5 hPa | 0 mm | - | 0 W/m² | - |
| 1778064812 | 13.89° C | 88% | 1019 hPa | 0 mm | - | 0 W/m² | - |
| 1778064510 | 13.89° C | 88% | 1019.1 hPa | 0 mm | - | 0 W/m² | - |
| 1778064207 | 13.89° C | 88% | 1018.8 hPa | 0 mm | - | 0 W/m² | - |
| 1778063602 | 13.89° C | 88% | 1018.9 hPa | 0 mm | - | 0 W/m² | - |
* Rain latest hour (hover to see other rain measurements)
** Current wind speed in m/s (hover to see current wind gust speed)